Temperature
1 1 2 2 2 2 2 2 3 3 3 3 3 4 4 4 4 4 4 4 4 4 4 4 4 5 5 5 5 5 5 5 5 5 5 5 5 5 5 5 5 5 5
1 1 1 1 1 1 2 2 2 2 2 3 3 3 3 3 3 3 3 3 3 4 4 4 4 4 4 4 4 4 4 4 4 5 5 5 5 5 5 5 5 5 4
0 0 0 0 1 1 1 1 1 2 2 2 2 2 2 3 3 3 3 3 3 3 3 3 4 4 4 4 4 4 4 4 4 4 4 4 4 4 4 4 4 4 4
-1 -1 -0 -0 -0 0 0 0 1 1 1 1 2 2 2 2 2 2 2 2 3 3 3 3 3 3 3 3 3 3 3 3 3 3 3 3 3 4 4 4 4 4 4
-1 -1 -1 -1 -1 -1 -0 -0 0 0 0 0 1 1 1 1 1 1 2 2 2 2 2 2 2 2 2 2 2 2 2 2 2 3 3 3 3 3 3 3 3 3 3
-2 -2 -2 -1 -1 -1 -1 -1 -1 -1 -0 -0 -0 0 0 0 1 1 1 1 1 1 1 1 1 1 1 2 2 2 2 2 2 2 2 2 2 2 2 2 2 2 2
-2 -2 -2 -2 -2 -2 -2 -2 -1 -1 -1 -1 -1 -1 -0 -0 -0 -0 -0 -0 -0 0 0 0 0 1 1 1 1 1 1 1 1 1 1 1 1 2 2 2 2 2 1
-3 -3 -3 -3 -3 -2 -2 -2 -2 -2 -2 -2 -2 -1 -1 -1 -1 -1 -1 -1 -1 -1 -0 -0 -0 0 0 0 0 0 1 1 1 1 1 1 1 1 1 1 1 1 1
-4 -3 -3 -3 -3 -3 -3 -3 -3 -3 -3 -2 -2 -2 -2 -1 -1 -1 -2 -1 -1 -1 -1 -1 -1 -1 -0 -0 -0 -0 -0 -0 -0 -0 -0 -0 0 0 0 0 0 0 0
-4 -4 -4 -4 -4 -3 -3 -3 -3 -3 -3 -3 -3 -3 -2 -2 -2 -2 -2 -2 -2 -2 -2 -1 -1 -1 -1 -1 -1 -1 -1 -1 -1 -1 -1 -1 -1 -1 -0 -0 -0 -1 -1
-5 -4 -4 -4 -4 -4 -4 -4 -4 -4 -4 -4 -3 -3 -3 -3 -3 -3 -3 -3 -3 -2 -2 -2 -2 -2 -2 -2 -2 -2 -1 -1 -2 -1 -1 -1 -1 -1 -1 -1 -1 -1 -1
-5 -5 -5 -5 -5 -4 -4 -4 -4 -4 -4 -4 -4 -4 -4 -4 -4 -3 -3 -3 -3 -3 -3 -3 -2 -2 -2 -2 -2 -2 -2 -2 -2 -2 -2 -2 -2 -2 -2 -2 -2 -2 -2
-6 -5 -5 -5 -5 -5 -5 -5 -5 -5 -5 -5 -5 -5 -4 -4 -4 -4 -4 -4 -4 -3 -3 -3 -3 -3 -3 -3 -3 -3 -3 -3 -3 -3 -3 -3 -3 -3 -2 -2 -2 -2 -2
-6 -6 -6 -6 -5 -5 -6 -6 -5 -5 -5 -5 -5 -5 -5 -5 -4 -4 -4 -4 -4 -4 -4 -3 -3 -3 -3 -3 -3 -3 -3 -3 -3 -4 -3 -3 -3 -3 -3 -3 -3 -3 -3
-7 -7 -7 -6 -6 -6 -6 -6 -6 -6 -6 -6 -6 -6 -6 -5 -5 -5 -5 -5 -4 -4 -4 -4 -4 -4 -4 -4 -4 -4 -4 -4 -4 -4 -4 -4 -4 -4 -4 -4 -4 -4 -3
-7 -7 -7 -7 -7 -7 -7 -6 -6 -6 -6 -6 -6 -6 -6 -6 -6 -5 -5 -5 -5 -5 -4 -4 -4 -4 -5 -5 -5 -5 -5 -4 -4 -5 -5 -5 -4 -4 -4 -4 -4 -4 -4
-7 -7 -7 -7 -7 -7 -7 -7 -7 -6 -7 -7 -6 -6 -6 -6 -6 -6 -6 -5 -5 -5 -5 -5 -5 -5 -5 -5 -5 -5 -5 -5 -5 -5 -5 -5 -5 -5 -5 -5 -5 -5 -5
-8 -8 -8 -8 -8 -8 -8 -8 -7 -7 -7 -7 -7 -7 -7 -7 -7 -6 -6 -6 -5 -5 -5 -5 -5 -6 -6 -6 -6 -6 -6 -6 -6 -6 -6 -6 -6 -6 -6 -5 -5 -5 -5
-8 -8 -8 -8 -8 -8 -8 -8 -8 -8 -7 -7 -7 -7 -7 -7 -7 -7 -7 -6 -6 -6 -6 -6 -6 -6 -6 -6 -6 -6 -6 -6 -6 -6 -6 -6 -6 -6 -6 -6 -6 -6 -6
-8 -8 -8 -8 -8 -8 -8 -8 -8 -8 -8 -8 -8 -8 -8 -8 -7 -7 -7 -7 -7 -7 -7 -7 -7 -7 -7 -7 -7 -7 -7 -7 -7 -7 -7 -7 -7 -7 -6 -6 -6 -7 -7
-9 -9 -9 -9 -9 -9 -9 -9 -8 -8 -8 -8 -8 -8 -8 -8 -8 -8 -8 -8 -8 -8 -8 -7 -7 -7 -7 -7 -7 -7 -7 -7 -7 -7 -7 -7 -7 -7 -7 -7 -7 -7 -7
-9 -9 -9 -9 -9 -9 -9 -9 -9 -9 -9 -9 -9 -9 -9 -9 -9 -8 -8 -8 -8 -8 -8 -8 -8 -8 -8 -8 -7 -8 -8 -7 -7 -7 -7 -7 -7 -8 -8 -8 -7 -7 -7
-10 -9 -9 -9 -9 -9 -9 -9 -9 -9 -9 -9 -9 -9 -9 -9 -9 -9 -9 -9 -9 -9 -9 -8 -8 -8 -8 -8 -8 -8 -8 -8 -8 -8 -8 -8 -8 -8 -8 -8 -8 -8 -8
-10 -10 -10 -10 -10 -10 -10 -10 -10 -10 -10 -10 -10 -10 -9 -9 -9 -9 -9 -9 -9 -9 -9 -9 -9 -9 -9 -8 -8 -8 -8 -8 -8 -8 -8 -8 -8 -8 -8 -8 -8 -8 -8
-10 -10 -10 -10 -10 -10 -10 -10 -10 -10 -10 -10 -10 -10 -10 -10 -10 -10 -10 -10 -10 -9 -9 -9 -9 -9 -9 -9 -9 -9 -8 -8 -8 -8 -9 -9 -9 -8 -8 -8 -8 -8 -8
-10 -11 -11 -11 -11 -11 -11 -11 -11 -10 -10 -10 -10 -10 -10 -10 -10 -10 -10 -10 -10 -10 -10 -10 -10 -9 -9 -9 -9 -9 -9 -9 -9 -9 -9 -9 -9 -9 -9 -9 -9 -9 -9
Wind_Speed
1 0 1 1 1 0 0 0 0 1 1 0 0 1 1 1 1 2 1 2 2 2 2 2 2 2 2 1 1 1 1 1 3 2 1 1 1 1 2 2 3 3 4
1 0 1 0 1 0 0 1 1 1 1 0 0 0 1 1 2 2 2 2 2 3 3 3 3 2 2 2 2 2 2 2 2 3 2 1 2 2 2 2 2 3 4
2 1 1 1 1 1 1 1 1 1 1 1 1 1 1 1 1 2 2 2 3 3 3 4 4 3 3 2 2 3 2 2 2 2 2 2 1 1 2 2 2 2 3
3 2 2 1 1 1 1 1 2 2 1 1 2 2 2 2 2 1 1 2 2 2 2 3 4 4 4 4 3 3 2 2 2 2 2 2 2 1 1 1 2 2 2
3 3 3 2 2 1 1 1 1 1 2 2 2 2 2 2 2 2 2 2 2 2 2 2 3 3 5 4 3 3 3 2 2 2 2 2 2 2 2 1 2 2 3
2 3 3 3 2 2 2 2 2 1 1 1 2 2 2 2 3 3 3 2 2 2 2 2 2 2 3 4 4 4 4 3 3 3 3 3 3 3 2 2 2 2 3
3 3 3 3 3 3 2 2 2 2 2 2 2 3 3 3 3 3 3 2 2 2 2 2 2 2 2 2 2 3 3 4 4 4 4 4 4 3 3 3 3 3 4
3 3 3 3 3 3 3 3 3 2 2 2 3 3 2 3 4 4 4 2 2 3 3 3 3 3 3 3 2 2 2 2 3 3 3 4 3 3 4 4 4 2 2
3 3 4 3 3 3 3 3 3 2 3 3 3 3 3 3 4 4 4 2 2 3 3 3 3 3 4 4 3 3 2 2 3 3 4 4 5 5 3 1 1 1 2
4 4 4 3 3 3 3 3 3 3 3 3 3 3 3 3 4 4 4 2 2 2 2 3 4 5 5 5 4 4 4 3 2 2 2 3 3 3 3 3 3 3 2
4 4 3 3 3 3 3 3 2 2 2 2 3 3 3 3 4 5 5 3 3 3 3 3 3 5 5 5 4 3 4 3 2 2 1 1 1 1 2 2 3 3 3
4 3 3 3 3 3 2 3 2 2 2 2 2 3 2 2 3 4 5 4 4 3 3 3 3 4 4 4 3 3 3 2 1 1 1 1 2 2 2 2 2 3 3
3 3 4 4 3 2 2 2 2 2 2 2 2 2 3 2 3 4 4 4 4 3 3 4 4 4 3 2 2 3 2 1 2 2 2 2 2 2 1 1 2 2 2
3 3 3 3 3 2 2 1 2 2 2 3 3 3 3 3 2 2 2 2 3 3 2 3 3 3 2 1 1 1 1 1 2 2 2 2 1 1 1 1 2 2 2
3 3 3 2 2 2 2 2 2 2 3 3 3 3 3 3 4 5 3 3 2 3 2 1 1 1 1 1 1 1 1 1 1 1 2 1 1 1 2 2 2 2 2
3 3 2 2 2 2 2 3 4 4 5 5 5 4 4 5 6 6 5 5 4 2 1 1 2 2 2 2 2 1 1 1 1 2 2 2 2 2 2 2 2 2 3
2 3 2 2 2 2 2 2 3 4 5 5 5 5 4 5 5 5 4 3 2 1 1 1 2 2 2 2 2 2 2 2 1 2 2 2 2 2 2 2 2 3 3
3 3 3 2 2 2 2 2 2 2 3 4 5 5 6 5 5 5 3 2 1 1 0 1 1 2 2 2 2 2 2 2 2 2 2 2 2 3 3 3 3 3 3
3 2 2 2 2 2 2 2 2 2 2 3 3 4 5 5 5 5 4 2 1 1 1 1 1 1 2 2 2 2 2 2 2 2 2 2 3 3 3 3 3 4 4
2 4 3 2 2 2 2 2 2 2 2 2 3 3 3 3 2 3 3 2 2 2 1 1 1 1 1 2 2 2 2 2 2 2 3 3 3 3 3 3 3 4 4
2 3 4 3 2 2 2 2 2 2 2 2 3 3 4 2 2 2 2 2 2 2 2 2 2 2 2 2 2 2 3 3 3 3 3 3 3 3 3 3 4 4 4
2 2 2 2 2 2 2 2 2 2 2 2 3 4 5 3 2 2 2 3 2 2 3 2 2 2 2 3 3 3 3 3 3 3 4 4 4 4 4 4 4 4 4
1 2 2 2 2 3 3 2 2 2 2 2 3 3 3 3 3 3 3 3 3 3 3 3 3 3 3 4 4 5 4 5 5 5 4 4 4 4 4 4 5 4 5
1 1 1 2 2 2 2 2 2 2 2 2 2 3 3 3 3 3 4 3 3 4 4 4 4 5 5 5 5 6 6 7 7 7 7 6 5 5 4 4 5 5 5
1 1 1 1 2 2 2 2 2 3 3 3 3 3 3 3 3 3 3 4 4 4 5 5 5 5 6 7 7 7 8 9 9 8 7 6 6 5 5 5 5 5 5
2 2 2 1 2 2 2 2 2 3 3 3 3 3 3 3 4 4 4 4 4 4 5 5 6 7 7 7 8 9 9 10 10 10 8 6 6 5 5 5 6 5 6
Wind_Direction
22 34 11 15 14 72 138 244 269 310 321 81 119 164 150 141 145 150 167 175 189 199 193 195 215 210 207 213 207 208 209 192 232 260 248 294 260 272 297 269 264 265 269
331 328 320 349 43 30 232 240 251 267 286 272 235 220 175 183 178 179 191 197 199 208 209 205 220 210 211 218 207 215 218 209 208 250 262 249 255 260 260 260 280 273 276
348 342 332 342 4 333 279 246 229 238 251 273 235 230 231 216 200 202 200 205 212 219 217 213 217 205 219 225 221 219 217 220 213 224 252 253 254 274 281 280 281 292 292
348 341 322 295 275 265 296 270 240 227 222 237 242 236 234 226 224 220 208 218 220 228 229 222 217 211 221 219 225 223 215 207 204 211 247 250 253 255 244 254 285 287 291
338 332 319 309 306 295 296 294 259 239 242 240 245 249 243 233 225 214 209 220 224 239 253 239 233 232 232 226 227 217 208 212 214 227 244 254 253 246 248 238 267 293 284
326 317 316 319 320 307 297 299 295 281 262 249 248 249 246 251 252 243 233 217 230 236 254 259 258 261 250 243 236 226 216 218 224 232 241 240 248 243 243 235 242 275 277
324 320 318 319 319 307 304 300 289 281 272 259 251 246 244 250 255 252 245 227 226 235 244 256 261 263 266 237 241 248 253 249 236 228 236 243 241 234 224 232 230 243 253
323 319 319 323 320 317 313 296 289 282 270 262 260 256 255 255 256 257 256 237 229 235 232 235 241 245 241 220 211 223 239 255 250 239 228 240 246 237 227 233 232 252 275
323 318 316 313 304 308 307 298 292 287 278 274 273 268 261 263 261 256 257 229 233 242 240 239 233 230 239 232 216 217 236 261 269 256 262 264 257 248 230 210 218 236 270
314 308 307 304 296 291 291 291 288 282 280 279 282 279 269 265 261 256 251 229 236 249 255 251 245 236 237 235 219 213 229 247 249 281 294 290 281 257 236 226 219 228 254
308 311 313 310 301 289 287 284 277 284 291 291 293 294 280 271 268 264 256 234 226 237 250 255 239 235 241 238 236 223 230 231 227 230 249 269 284 275 259 239 222 223 235
314 315 316 316 310 307 300 299 295 283 284 291 297 302 301 289 280 270 267 260 248 239 246 251 235 231 236 239 240 221 222 236 217 211 232 254 259 267 280 274 255 248 251
318 315 315 319 318 309 299 295 295 278 269 278 280 287 301 308 297 286 279 275 265 254 243 240 234 231 232 229 227 225 222 207 202 224 236 249 258 270 305 326 335 331 321
303 304 307 313 317 321 314 294 276 270 269 269 273 278 289 299 299 292 281 280 274 261 248 234 229 224 211 197 214 224 184 198 211 225 238 240 244 254 258 275 272 282 289
295 294 301 309 307 313 315 298 284 275 270 272 272 269 271 284 291 290 280 265 247 233 224 218 203 189 182 186 191 194 185 203 230 234 234 240 243 248 255 266 261 268 261
292 299 299 305 307 312 318 327 328 315 313 308 303 296 288 285 290 292 291 281 272 243 238 200 194 190 200 210 217 225 225 227 231 232 229 233 242 245 254 260 261 253 257
276 284 288 296 299 307 311 314 324 334 335 334 331 327 319 317 316 316 311 298 269 213 184 188 196 198 207 212 215 225 243 243 237 233 234 237 247 250 250 254 259 261 264
293 291 293 283 281 284 289 296 299 307 322 331 334 336 338 337 338 339 344 356 342 358 160 204 211 213 214 218 221 228 234 236 238 237 234 236 239 244 249 253 256 259 265
300 293 290 286 281 281 288 295 298 301 307 317 332 337 341 346 354 360 9 16 358 337 320 280 249 238 236 233 230 228 229 234 238 235 241 243 241 241 248 253 257 262 266
306 311 317 308 299 297 297 296 301 305 309 318 326 331 338 349 355 355 2 2 351 331 313 296 285 265 255 245 234 229 234 235 237 239 242 248 247 243 246 252 256 259 260
305 312 318 321 317 309 304 304 306 310 313 315 318 321 332 339 339 337 339 341 334 324 314 296 283 274 263 250 238 233 232 236 234 235 241 246 248 249 253 255 257 258 261
299 304 307 306 308 311 311 312 311 312 318 321 328 330 335 345 341 333 329 325 320 304 296 285 274 261 251 244 237 237 241 242 240 237 242 246 248 248 250 252 254 257 258
299 304 308 305 306 308 318 319 314 310 309 312 317 322 327 329 325 321 317 316 309 306 301 290 283 277 268 262 252 239 236 241 243 237 236 241 246 246 247 251 252 255 259
284 282 288 298 308 310 310 310 309 305 302 303 308 311 313 313 314 315 315 310 309 306 302 295 284 280 282 277 268 259 255 255 252 244 237 237 244 248 246 248 251 251 253
282 279 280 284 290 295 297 300 304 304 305 307 308 311 313 314 315 316 313 309 308 303 300 296 289 287 289 289 284 275 266 262 260 256 246 240 240 242 246 248 250 252 254
289 281 278 280 284 287 287 291 296 300 301 304 305 306 307 308 310 310 308 305 302 297 295 294 295 296 296 292 291 289 279 271 265 263 255 243 238 244 245 245 245 247 253
Height
1496 1497 1497 1498 1499 1500 1501 1502 1504 1505 1506 1507 1508 1510 1511 1512 1514 1515 1516 1518 1520 1521 1523 1524 1526 1528 1529 1530 1532 1533 1534 1535 1535 1535 1536 1537 1538 1539 1539 1540 1540 1541 1541
1494 1494 1495 1496 1496 1497 1498 1499 1501 1502 1503 1504 1505 1506 1507 1509 1510 1511 1513 1514 1516 1517 1519 1520 1522 1523 1525 1526 1527 1528 1530 1531 1531 1531 1532 1533 1534 1535 1535 1535 1536 1536 1537
1492 1492 1492 1493 1493 1494 1495 1496 1497 1498 1499 1501 1502 1503 1504 1505 1506 1508 1509 1510 1512 1513 1515 1516 1517 1519 1520 1521 1523 1524 1525 1526 1527 1527 1527 1528 1529 1530 1530 1531 1531 1532 1532
1490 1490 1490 1490 1491 1491 1492 1493 1494 1495 1496 1497 1498 1499 1500 1501 1502 1504 1505 1506 1507 1509 1510 1512 1513 1514 1515 1517 1518 1519 1520 1522 1523 1523 1523 1524 1524 1525 1526 1526 1526 1527 1527
1488 1487 1488 1488 1488 1489 1489 1490 1490 1491 1492 1493 1494 1495 1496 1497 1498 1500 1501 1502 1503 1504 1506 1507 1509 1510 1511 1512 1513 1514 1516 1517 1518 1518 1519 1519 1520 1520 1520 1521 1521 1521 1522
1486 1485 1485 1485 1485 1486 1486 1486 1487 1487 1488 1489 1490 1491 1492 1493 1494 1496 1497 1498 1499 1500 1501 1503 1504 1505 1506 1507 1508 1510 1511 1512 1513 1514 1514 1514 1515 1516 1516 1516 1516 1516 1516
1483 1483 1483 1483 1483 1483 1483 1483 1483 1483 1484 1485 1486 1487 1488 1489 1490 1492 1493 1494 1495 1496 1497 1498 1499 1500 1501 1502 1503 1504 1506 1507 1508 1509 1509 1509 1510 1511 1512 1512 1512 1511 1511
1481 1481 1481 1480 1480 1480 1480 1480 1480 1480 1481 1481 1482 1483 1484 1485 1486 1487 1489 1490 1491 1492 1493 1494 1495 1496 1497 1498 1499 1499 1500 1501 1503 1503 1504 1504 1505 1506 1507 1507 1507 1506 1507
1479 1478 1478 1478 1478 1477 1477 1477 1477 1477 1477 1478 1478 1479 1480 1481 1482 1483 1484 1485 1486 1487 1488 1489 1490 1491 1492 1493 1494 1495 1495 1496 1497 1498 1499 1500 1500 1501 1501 1502 1502 1502 1501
1476 1476 1476 1476 1475 1475 1475 1474 1475 1475 1474 1475 1475 1476 1476 1477 1478 1479 1480 1481 1481 1482 1483 1484 1485 1487 1488 1488 1489 1490 1491 1492 1493 1493 1494 1495 1495 1496 1496 1497 1497 1497 1496
1474 1474 1474 1473 1473 1472 1472 1472 1472 1471 1471 1471 1471 1472 1473 1473 1474 1475 1476 1477 1477 1478 1478 1479 1481 1482 1483 1484 1485 1486 1486 1487 1488 1488 1489 1490 1490 1491 1491 1492 1492 1492 1492
1472 1471 1471 1470 1470 1469 1469 1469 1469 1468 1468 1468 1468 1468 1468 1469 1470 1470 1471 1472 1473 1474 1474 1475 1476 1477 1478 1479 1480 1481 1482 1483 1483 1484 1484 1484 1485 1486 1486 1487 1487 1487 1488
1469 1468 1468 1467 1467 1466 1466 1466 1465 1465 1465 1465 1464 1464 1464 1465 1465 1466 1467 1468 1469 1469 1470 1470 1471 1472 1473 1474 1475 1476 1477 1478 1478 1479 1479 1480 1480 1481 1481 1482 1482 1482 1483
1467 1466 1465 1465 1464 1463 1463 1463 1463 1462 1462 1462 1461 1461 1460 1461 1461 1462 1462 1463 1464 1464 1465 1466 1467 1467 1468 1469 1470 1471 1472 1473 1474 1474 1474 1475 1476 1476 1476 1477 1477 1477 1477
1464 1464 1463 1462 1462 1461 1460 1461 1460 1460 1460 1460 1459 1459 1458 1457 1458 1459 1459 1459 1460 1460 1461 1461 1462 1463 1464 1465 1466 1466 1467 1468 1469 1470 1470 1470 1471 1471 1472 1472 1472 1472 1472
1462 1461 1461 1460 1459 1459 1458 1458 1457 1458 1457 1457 1457 1457 1455 1455 1455 1455 1455 1456 1456 1457 1457 1457 1458 1458 1460 1461 1462 1462 1463 1464 1464 1465 1466 1466 1466 1466 1467 1467 1468 1468 1467
1460 1459 1459 1458 1457 1456 1456 1455 1455 1455 1455 1455 1454 1453 1453 1452 1452 1452 1452 1452 1453 1453 1453 1453 1454 1455 1456 1457 1458 1459 1459 1460 1460 1461 1461 1462 1462 1462 1462 1462 1462 1463 1462
1458 1457 1456 1456 1455 1455 1454 1454 1453 1453 1452 1451 1452 1451 1450 1450 1449 1449 1449 1449 1449 1449 1450 1450 1451 1451 1452 1453 1454 1454 1455 1456 1456 1457 1457 1457 1458 1458 1458 1458 1458 1458 1458
1456 1455 1454 1454 1454 1453 1453 1452 1452 1451 1450 1449 1449 1448 1448 1447 1447 1446 1446 1446 1446 1446 1447 1447 1447 1448 1449 1450 1450 1451 1451 1452 1452 1452 1453 1453 1453 1453 1453 1453 1453 1453 1453
1454 1453 1453 1452 1452 1451 1450 1450 1449 1449 1448 1447 1446 1446 1445 1445 1444 1444 1444 1444 1443 1443 1444 1444 1444 1445 1446 1446 1447 1447 1447 1447 1448 1448 1448 1449 1449 1449 1449 1449 1449 1449 1449
1452 1452 1451 1451 1450 1449 1449 1448 1448 1447 1446 1445 1445 1445 1444 1443 1442 1442 1441 1441 1441 1441 1441 1441 1441 1441 1442 1442 1443 1443 1443 1443 1444 1444 1444 1444 1445 1445 1444 1444 1445 1445 1445
1451 1450 1449 1449 1448 1447 1447 1446 1446 1445 1444 1444 1443 1443 1442 1441 1440 1440 1440 1439 1439 1439 1438 1438 1438 1438 1438 1439 1439 1439 1439 1439 1439 1440 1440 1440 1440 1440 1440 1440 1440 1440 1440
1449 1448 1448 1447 1447 1446 1445 1444 1444 1443 1442 1442 1441 1440 1440 1439 1438 1438 1437 1437 1436 1436 1435 1435 1434 1434 1434 1435 1435 1435 1435 1435 1435 1435 1435 1436 1436 1436 1436 1436 1436 1436 1436
1447 1447 1446 1445 1445 1444 1443 1442 1442 1441 1440 1440 1439 1438 1438 1437 1436 1435 1435 1434 1433 1432 1432 1431 1431 1431 1430 1430 1430 1430 1430 1430 1431 1431 1431 1431 1431 1431 1431 1431 1431 1431 1431
1445 1445 1444 1443 1443 1442 1441 1440 1439 1439 1438 1437 1437 1436 1435 1434 1433 1433 1432 1431 1430 1429 1429 1428 1428 1427 1426 1426 1426 1426 1426 1426 1426 1426 1427 1427 1427 1427 1427 1427 1427 1427 1427
1443 1442 1442 1441 1440 1440 1439 1438 1437 1436 1436 1435 1434 1433 1432 1431 1430 1429 1428 1427 1426 1426 1425 1424 1424 1423 1422 1422 1421 1421 1421 1421 1421 1422 1422 1422 1422 1422 1422 1422 1422 1423 1423